| time (UTC) | temp F | wind direction | speed MPH | gust MPH | rain 1hr in | rain 24hr in | rain mn in | humidity % | barometer mb |
| 20260507085050 | 54 | 284 | 1.0 | 4.0 | 0.00 | 0.00 | 0.00 | 76 | 1021.0 |
| 20260507084550 | 54 | 273 | 0.0 | 2.0 | 0.00 | 0.00 | 0.00 | 76 | 1021.1 |
| 20260507084048 | 54 | 294 | 0.0 | 4.0 | 0.00 | 0.00 | 0.00 | 76 | 1021.1 |
| 20260507083549 | 54 | 294 | 1.0 | 4.0 | 0.00 | 0.00 | 0.00 | 76 | 1021.2 |
| 20260507083050 | 54 | 296 | 0.0 | 7.0 | 0.00 | 0.00 | 0.00 | 76 | 1021.2 |
| 20260507082548 | 55 | 293 | 2.0 | 7.0 | 0.00 | 0.00 | 0.00 | 76 | 1021.2 |
| 20260507082047 | 55 | 261 | 0.0 | 4.0 | 0.00 | 0.00 | 0.00 | 77 | 1021.2 |
| 20260507081549 | 55 | 259 | 1.0 | 4.0 | 0.00 | 0.00 | 0.00 | 76 | 1021.3 |
| 20260507081050 | 55 | 299 | 0.0 | 2.0 | 0.00 | 0.00 | 0.00 | 77 | 1021.1 |
| 20260507080547 | 55 | 298 | 0.0 | 2.0 | 0.00 | 0.00 | 0.00 | 77 | 1021.2 |
| 20260507080046 | 55 | 298 | 0.0 | 2.0 | 0.00 | 0.00 | 0.00 | 77 | 1021.1 |
| 20260507075547 | 55 | 299 | 0.0 | 3.0 | 0.00 | 0.00 | 0.00 | 77 | 1021.2 |
| 20260507075049 | 55 | 299 | 1.0 | 5.0 | 0.00 | 0.00 | 0.00 | 77 | 1021.2 |
| 20260507074548 | 55 | 299 | 0.0 | 5.0 | 0.00 | 0.00 | 0.00 | 76 | 1021.3 |
| 20260507074045 | 55 | 273 | 1.0 | 4.0 | 0.00 | 0.00 | 0.00 | 77 | 1021.2 |
| 20260507073548 | 55 | 328 | 2.0 | 8.0 | 0.00 | 0.00 | 0.00 | 76 | 1021.2 |
| 20260507073102 | 55 | 278 | 1.0 | 6.0 | 0.00 | 0.00 | 0.00 | 77 | 1021.1 |
| 20260507072545 | 55 | 278 | 2.0 | 5.0 | 0.00 | 0.00 | 0.00 | 76 | 1021.1 |
| 20260507072043 | 55 | 290 | 0.0 | 7.0 | 0.00 | 0.00 | 0.00 | 76 | 1021.2 |
| 20260507071543 | 55 | 261 | 0.0 | 8.0 | 0.00 | 0.00 | 0.00 | 76 | 1021.0 |
| 20260507071043 | 55 | 300 | 3.0 | 7.0 | 0.00 | 0.00 | 0.00 | 76 | 1021.1 |
| 20260507070543 | 55 | 308 | 1.0 | 4.0 | 0.00 | 0.00 | 0.00 | 77 | 1021.1 |
| 20260507070043 | 55 | 309 | 0.0 | 6.0 | 0.00 | 0.00 | 0.00 | 76 | 1021.0 |
| 20260507065540 | 55 | 309 | 3.0 | 7.0 | 0.00 | 0.00 | 0.00 | 76 | 1021.1 |
| 20260507065041 | 55 | 303 | 2.0 | 4.0 | 0.00 | 0.00 | 0.00 | 77 | 1021.2 |
| 20260507064548 | 55 | 286 | 1.0 | 7.0 | 0.00 | 0.00 | 0.00 | 76 | 1021.1 |
| 20260507064040 | 55 | 315 | 2.0 | 7.0 | 0.00 | 0.00 | 0.00 | 76 | 1021.1 |
| 20260507063540 | 55 | 219 | 2.0 | 7.0 | 0.00 | 0.00 | 0.00 | 76 | 1021.1 |
| 20260507063047 | 55 | 287 | 2.0 | 9.0 | 0.00 | 0.00 | 0.00 | 76 | 1021.2 |
| 20260507062539 | 55 | 288 | 3.0 | 9.0 | 0.00 | 0.00 | 0.00 | 76 | 1021.1 |
| 20260507062039 | 55 | 238 | 3.0 | 7.0 | 0.00 | 0.00 | 0.00 | 76 | 1021.2 |
| 20260507061540 | 56 | 292 | 2.0 | 7.0 | 0.00 | 0.00 | 0.00 | 76 | 1021.0 |
| 20260507061037 | 56 | 286 | 3.0 | 7.0 | 0.00 | 0.00 | 0.00 | 76 | 1021.1 |
| 20260507060536 | 56 | 278 | 1.0 | 6.0 | 0.00 | 0.00 | 0.00 | 76 | 1021.1 |
| 20260507060041 | 56 | 296 | 0.0 | 6.0 | 0.00 | 0.00 | 0.00 | 76 | 1021.1 |
| 20260507055538 | 56 | 286 | 3.0 | 6.0 | 0.00 | 0.00 | 0.00 | 76 | 1021.0 |
| 20260507055035 | 56 | 237 | 2.0 | 9.0 | 0.00 | 0.00 | 0.00 | 76 | 1021.2 |
| 20260507054536 | 56 | 292 | 3.0 | 10.0 | 0.00 | 0.00 | 0.00 | 76 | 1021.2 |
| 20260507054035 | 56 | 302 | 5.0 | 10.0 | 0.00 | 0.00 | 0.00 | 76 | 1021.2 |
| 20260507053534 | 56 | 287 | 4.0 | 8.0 | 0.00 | 0.00 | 0.00 | 75 | 1021.0 |
| 20260507053036 | 56 | 284 | 3.0 | 8.0 | 0.00 | 0.00 | 0.00 | 75 | 1021.0 |
| 20260507052532 | 56 | 294 | 2.0 | 9.0 | 0.00 | 0.00 | 0.00 | 75 | 1021.1 |
| 20260507052033 | 56 | 306 | 3.0 | 9.0 | 0.00 | 0.00 | 0.00 | 74 | 1021.0 |
| 20260507051533 | 56 | 244 | 2.0 | 10.0 | 0.00 | 0.00 | 0.00 | 74 | 1021.1 |
| 20260507051035 | 57 | 256 | 1.0 | 7.0 | 0.00 | 0.00 | 0.00 | 74 | 1021.1 |
| 20260507050531 | 57 | 250 | 2.0 | 12.0 | 0.00 | 0.00 | 0.00 | 74 | 1021.1 |
| 20260507050035 | 57 | 288 | 3.0 | 10.0 | 0.00 | 0.00 | 0.00 | 74 | 1021.1 |
| 20260507045531 | 57 | 298 | 4.0 | 10.0 | 0.00 | 0.00 | 0.00 | 74 | 1021.2 |
| 20260507045031 | 57 | 233 | 3.0 | 9.0 | 0.00 | 0.00 | 0.00 | 74 | 1021.2 |
| 20260507044532 | 57 | 265 | 4.0 | 9.0 | 0.00 | 0.00 | 0.00 | 74 | 1021.2 |
| 20260507044030 | 58 | 250 | 2.0 | 9.0 | 0.00 | 0.00 | 0.00 | 74 | 1021.1 |
| 20260507043529 | 58 | 302 | 3.0 | 9.0 | 0.00 | 0.00 | 0.00 | 74 | 1021.1 |
| 20260507043032 | 58 | 286 | 5.0 | 11.0 | 0.00 | 0.00 | 0.00 | 74 | 1021.1 |
| 20260507042528 | 58 | 303 | 4.0 | 12.0 | 0.00 | 0.00 | 0.00 | 74 | 1021.0 |
| 20260507042027 | 58 | 302 | 7.0 | 12.0 | 0.00 | 0.00 | 0.00 | 74 | 1020.9 |
| 20260507041534 | 58 | 316 | 4.0 | 10.0 | 0.00 | 0.00 | 0.00 | 74 | 1020.9 |
| 20260507041027 | 58 | 230 | 4.0 | 13.0 | 0.00 | 0.00 | 0.00 | 74 | 1020.8 |
| 20260507040527 | 59 | 324 | 8.0 | 13.0 | 0.00 | 0.00 | 0.00 | 74 | 1020.8 |
| 20260507040026 | 59 | 295 | 8.0 | 12.0 | 0.00 | 0.00 | 0.00 | 74 | 1020.6 |
| 20260507035526 | 59 | 289 | 4.0 | 12.0 | 0.00 | 0.00 | 0.00 | 74 | 1020.6 |
| 20260507035026 | 59 | 285 | 4.0 | 10.0 | 0.00 | 0.00 | 0.00 | 74 | 1020.5 |
| 20260507034532 | 59 | 296 | 5.0 | 14.0 | 0.00 | 0.00 | 0.00 | 74 | 1020.4 |
| 20260507034027 | 59 | 296 | 5.0 | 14.0 | 0.00 | 0.00 | 0.00 | 74 | 1020.4 |
| 20260507033525 | 60 | 285 | 6.0 | 11.0 | 0.00 | 0.00 | 0.00 | 74 | 1020.4 |
| 20260507033025 | 60 | 324 | 6.0 | 14.0 | 0.00 | 0.00 | 0.00 | 74 | 1020.1 |
| 20260507032524 | 60 | 289 | 7.0 | 14.0 | 0.00 | 0.00 | 0.00 | 74 | 1020.1 |
| 20260507032024 | 60 | 269 | 4.0 | 9.0 | 0.00 | 0.00 | 0.00 | 74 | 1019.9 |
| 20260507031524 | 60 | 286 | 3.0 | 9.0 | 0.00 | 0.00 | 0.00 | 74 | 1019.9 |
| 20260507031024 | 60 | 304 | 3.0 | 11.0 | 0.00 | 0.00 | 0.00 | 74 | 1019.8 |
| 20260507030524 | 60 | 298 | 4.0 | 11.0 | 0.00 | 0.00 | 0.00 | 74 | 1019.8 |
| 20260507030024 | 61 | 246 | 3.0 | 10.0 | 0.00 | 0.00 | 0.00 | 73 | 1019.6 |
| 20260507025524 | 61 | 306 | 4.0 | 11.0 | 0.00 | 0.00 | 0.00 | 73 | 1019.5 |
| 20260507025023 | 61 | 262 | 4.0 | 11.0 | 0.00 | 0.00 | 0.00 | 72 | 1019.5 |
| 20260507024523 | 62 | 261 | 4.0 | 10.0 | 0.00 | 0.00 | 0.00 | 72 | 1019.5 |
| 20260507024024 | 62 | 294 | 2.0 | 12.0 | 0.00 | 0.00 | 0.00 | 72 | 1019.4 |
| 20260507023524 | 62 | 317 | 3.0 | 12.0 | 0.00 | 0.00 | 0.00 | 72 | 1019.5 |
| 20260507023023 | 62 | 237 | 4.0 | 9.0 | 0.00 | 0.00 | 0.00 | 71 | 1019.4 |
| 20260507022523 | 63 | 338 | 3.0 | 9.0 | 0.00 | 0.00 | 0.00 | 71 | 1019.5 |
| 20260507022023 | 63 | 312 | 4.0 | 9.0 | 0.00 | 0.00 | 0.00 | 70 | 1019.6 |
| 20260507021522 | 63 | 305 | 3.0 | 9.0 | 0.00 | 0.00 | 0.00 | 70 | 1019.5 |
| 20260507021022 | 64 | 304 | 2.0 | 10.0 | 0.00 | 0.00 | 0.00 | 70 | 1019.5 |
| 20260507020522 | 64 | 317 | 5.0 | 10.0 | 0.00 | 0.00 | 0.00 | 69 | 1019.6 |
| 20260507020022 | 64 | 294 | 5.0 | 9.0 | 0.00 | 0.00 | 0.00 | 70 | 1019.7 |
| 20260507015521 | 64 | 298 | 5.0 | 12.0 | 0.00 | 0.00 | 0.00 | 70 | 1019.5 |
| 20260507015021 | 64 | 316 | 5.0 | 12.0 | 0.00 | 0.00 | 0.00 | 69 | 1019.7 |
| 20260507014524 | 65 | 322 | 8.0 | 13.0 | 0.00 | 0.00 | 0.00 | 69 | 1019.8 |
| 20260507014021 | 65 | 250 | 7.0 | 14.0 | 0.00 | 0.00 | 0.00 | 68 | 1019.7 |
| 20260507013521 | 65 | 305 | 6.0 | 14.0 | 0.00 | 0.00 | 0.00 | 68 | 1019.7 |
| 20260507013020 | 66 | 307 | 8.0 | 14.0 | 0.00 | 0.00 | 0.00 | 68 | 1019.6 |
| 20260507012520 | 66 | 292 | 6.0 | 14.0 | 0.00 | 0.00 | 0.00 | 68 | 1019.5 |
| 20260507012020 | 66 | 292 | 7.0 | 14.0 | 0.00 | 0.00 | 0.00 | 68 | 1019.6 |
| 20260507011520 | 66 | 291 | 5.0 | 12.0 | 0.00 | 0.00 | 0.00 | 69 | 1019.5 |
| 20260507011018 | 67 | 307 | 5.0 | 12.0 | 0.00 | 0.00 | 0.00 | 69 | 1019.5 |
| 20260507010521 | 67 | 342 | 1.0 | 10.0 | 0.00 | 0.00 | 0.00 | 69 | 1019.4 |
| 20260507010029 | 67 | 320 | 4.0 | 10.0 | 0.00 | 0.00 | 0.00 | 70 | 1019.5 |
| 20260507005520 | 67 | 316 | 4.0 | 10.0 | 0.00 | 0.00 | 0.00 | 70 | 1019.5 |
| 20260507005017 | 67 | 351 | 4.0 | 10.0 | 0.00 | 0.00 | 0.00 | 69 | 1019.5 |
| 20260507004517 | 67 | 327 | 7.0 | 10.0 | 0.00 | 0.00 | 0.00 | 69 | 1019.5 |
| 20260507004017 | 67 | 289 | 2.0 | 9.0 | 0.00 | 0.00 | 0.00 | 69 | 1019.5 |
| 20260507003516 | 67 | 333 | 5.0 | 9.0 | 0.00 | 0.00 | 0.00 | 70 | 1019.6 |
| 20260507003016 | 67 | 344 | 3.0 | 9.0 | 0.00 | 0.00 | 0.00 | 69 | 1019.4 |
| 20260507002516 | 67 | 347 | 3.0 | 10.0 | 0.00 | 0.00 | 0.00 | 69 | 1019.4 |
| 20260507002016 | 67 | 311 | 4.0 | 8.0 | 0.00 | 0.00 | 0.00 | 68 | 1019.6 |
| 20260507001517 | 67 | 314 | 4.0 | 8.0 | 0.00 | 0.00 | 0.00 | 68 | 1019.5 |
| 20260507001015 | 68 | 317 | 4.0 | 10.0 | 0.00 | 0.00 | 0.00 | 68 | 1019.5 |
| 20260507000515 | 68 | 346 | 4.0 | 10.0 | 0.00 | 0.00 | 0.00 | 67 | 1019.5 |
| 20260507000015 | 68 | 324 | 3.0 | 8.0 | 0.00 | 0.00 | 0.00 | 66 | 1019.6 |
| 20260506235514 | 68 | 321 | 4.0 | 8.0 | 0.00 | 0.00 | 0.00 | 65 | 1019.5 |
| 20260506235019 | 68 | 338 | 3.0 | 9.0 | 0.00 | 0.00 | 0.00 | 66 | 1019.5 |
| 20260506234529 | 68 | 328 | 4.0 | 9.0 | 0.00 | 0.00 | 0.00 | 65 | 1019.4 |
| 20260506234017 | 68 | 344 | 4.0 | 8.0 | 0.00 | 0.00 | 0.00 | 66 | 1019.5 |
| 20260506233514 | 68 | 9 | 5.0 | 8.0 | 0.00 | 0.00 | 0.00 | 65 | 1019.5 |
| 20260506233014 | 69 | 334 | 5.0 | 9.0 | 0.00 | 0.00 | 0.00 | 65 | 1019.5 |
| 20260506232513 | 69 | 327 | 4.0 | 9.0 | 0.00 | 0.00 | 0.00 | 65 | 1019.6 |
| 20260506232013 | 68 | 313 | 2.0 | 5.0 | 0.00 | 0.00 | 0.00 | 65 | 1019.5 |
| 20260506231513 | 68 | 294 | 1.0 | 5.0 | 0.00 | 0.00 | 0.00 | 65 | 1019.7 |
| 20260506231012 | 69 | 301 | 2.0 | 5.0 | 0.00 | 0.00 | 0.00 | 66 | 1019.6 |
| 20260506230513 | 68 | 299 | 1.0 | 8.0 | 0.00 | 0.00 | 0.00 | 65 | 1019.7 |
| 20260506230012 | 68 | 298 | 1.0 | 4.0 | 0.00 | 0.00 | 0.00 | 64 | 1019.8 |
| 20260506225513 | 69 | 188 | 2.0 | 6.0 | 0.00 | 0.00 | 0.00 | 64 | 1019.8 |
| 20260506225010 | 68 | 331 | 2.0 | 6.0 | 0.00 | 0.00 | 0.00 | 65 | 1019.8 |
| 20260506224522 | 68 | 337 | 2.0 | 8.0 | 0.00 | 0.00 | 0.00 | 67 | 1019.9 |
| 20260506224011 | 67 | 300 | 2.0 | 6.0 | 0.00 | 0.00 | 0.00 | 67 | 1020.0 |
| 20260506223510 | 67 | 306 | 0.0 | 6.0 | 0.00 | 0.00 | 0.00 | 66 | 1020.1 |
| 20260506223009 | 67 | 332 | 2.0 | 5.0 | 0.00 | 0.00 | 0.00 | 66 | 1020.2 |
| 20260506222509 | 68 | 236 | 0.0 | 3.0 | 0.00 | 0.00 | 0.00 | 66 | 1020.2 |
| 20260506222008 | 68 | 292 | 1.0 | 5.0 | 0.00 | 0.00 | 0.00 | 65 | 1020.1 |
| 20260506221511 | 68 | 293 | 2.0 | 8.0 | 0.00 | 0.00 | 0.00 | 65 | 1020.4 |
| 20260506221008 | 68 | 281 | 3.0 | 8.0 | 0.00 | 0.00 | 0.00 | 68 | 1020.1 |
| 20260506220508 | 68 | 329 | 4.0 | 8.0 | 0.00 | 0.00 | 0.00 | 66 | 1020.2 |
| 20260506220022 | 68 | 355 | 2.0 | 4.0 | 0.00 | 0.00 | 0.00 | 66 | 1020.3 |
| 20260506215507 | 68 | 288 | 2.0 | 4.0 | 0.00 | 0.00 | 0.00 | 66 | 1020.3 |
| 20260506215006 | 68 | 159 | 1.0 | 3.0 | 0.00 | 0.00 | 0.00 | 73 | 1020.1 |
| 20260506214505 | 67 | 143 | 0.0 | 4.0 | 0.00 | 0.00 | 0.00 | 71 | 1020.1 |
| 20260506214004 | 66 | 118 | 2.0 | 4.0 | 0.00 | 0.00 | 0.00 | 70 | 1020.1 |
| 20260506213503 | 65 | 38 | 2.0 | 5.0 | 0.00 | 0.00 | 0.00 | 72 | 1020.3 |
| 20260506213002 | 65 | 38 | 2.0 | 6.0 | 0.00 | 0.00 | 0.00 | 73 | 1020.3 |
| 20260506212600 | 65 | 70 | 4.0 | 7.0 | 0.00 | 0.00 | 0.00 | 72 | 1020.5 |
| 20260506212059 | 64 | 30 | 2.0 | 9.0 | 0.00 | 0.00 | 0.00 | 73 | 1020.5 |
| 20260506211559 | 64 | 326 | 5.0 | 9.0 | 0.00 | 0.00 | 0.00 | 72 | 1020.7 |
| 20260506211058 | 64 | 38 | 2.0 | 6.0 | 0.00 | 0.00 | 0.00 | 73 | 1020.7 |
| 20260506210557 | 64 | 28 | 1.0 | 5.0 | 0.00 | 0.00 | 0.00 | 74 | 1020.7 |
| 20260506210057 | 64 | 23 | 2.0 | 5.0 | 0.00 | 0.00 | 0.00 | 74 | 1020.7 |
| 20260506205656 | 64 | 355 | 1.0 | 5.0 | 0.00 | 0.00 | 0.00 | 73 | 1020.7 |
| 20260506205056 | 64 | 294 | 3.0 | 5.0 | 0.00 | 0.00 | 0.00 | 73 | 1020.7 |
| 20260506204556 | 64 | 312 | 2.0 | 6.0 | 0.00 | 0.00 | 0.00 | 74 | 1020.6 |
| 20260506204056 | 64 | 167 | 3.0 | 6.0 | 0.00 | 0.00 | 0.00 | 73 | 1020.7 |
| 20260506203559 | 64 | 47 | 1.0 | 4.0 | 0.00 | 0.00 | 0.00 | 75 | 1020.6 |
| 20260506203100 | 64 | 130 | 2.0 | 5.0 | 0.00 | 0.00 | 0.00 | 74 | 1020.7 |
| 20260506202555 | 64 | 9 | 2.0 | 5.0 | 0.00 | 0.00 | 0.00 | 74 | 1020.7 |
| 20260506202054 | 63 | 348 | 1.0 | 4.0 | 0.00 | 0.00 | 0.00 | 73 | 1020.6 |
| 20260506201553 | 63 | 350 | 3.0 | 4.0 | 0.00 | 0.00 | 0.00 | 75 | 1020.8 |
| 20260506201052 | 63 | 338 | 1.0 | 5.0 | 0.00 | 0.00 | 0.00 | 76 | 1020.7 |
| 20260506200556 | 63 | 301 | 3.0 | 5.0 | 0.00 | 0.00 | 0.00 | 75 | 1020.8 |
| 20260506200051 | 62 | 338 | 3.0 | 5.0 | 0.00 | 0.00 | 0.00 | 76 | 1020.8 |
| 20260506195549 | 62 | 298 | 1.0 | 6.0 | 0.00 | 0.00 | 0.00 | 76 | 1020.8 |
| 20260506195049 | 62 | 336 | 3.0 | 6.0 | 0.00 | 0.00 | 0.00 | 76 | 1020.9 |
| 20260506194553 | 62 | 292 | 1.0 | 7.0 | 0.00 | 0.00 | 0.00 | 75 | 1020.9 |
| 20260506194051 | 62 | 298 | 3.0 | 7.0 | 0.00 | 0.00 | 0.00 | 75 | 1020.9 |
| 20260506193548 | 62 | 321 | 2.0 | 5.0 | 0.00 | 0.00 | 0.00 | 75 | 1020.9 |
| 20260506193052 | 62 | 294 | 3.0 | 5.0 | 0.00 | 0.00 | 0.00 | 76 | 1020.8 |
| 20260506192547 | 62 | 311 | 1.0 | 5.0 | 0.00 | 0.00 | 0.00 | 76 | 1020.8 |
| 20260506192050 | 62 | 199 | 1.0 | 4.0 | 0.00 | 0.00 | 0.00 | 76 | 1020.7 |
| 20260506191547 | 62 | 201 | 0.0 | 3.0 | 0.00 | 0.00 | 0.00 | 76 | 1020.7 |
| 20260506191048 | 61 | 201 | 0.0 | 3.0 | 0.00 | 0.00 | 0.00 | 76 | 1020.8 |
| 20260506190547 | 61 | 201 | 0.0 | 3.0 | 0.00 | 0.00 | 0.00 | 77 | 1020.7 |
| 20260506190045 | 61 | 205 | 0.0 | 3.0 | 0.00 | 0.00 | 0.00 | 76 | 1020.7 |
| 20260506185545 | 61 | 267 | 1.0 | 4.0 | 0.00 | 0.00 | 0.00 | 76 | 1020.8 |
| 20260506185044 | 61 | 306 | 0.0 | 4.0 | 0.00 | 0.00 | 0.00 | 77 | 1020.7 |
| 20260506184544 | 61 | 304 | 1.0 | 4.0 | 0.00 | 0.00 | 0.00 | 77 | 1020.6 |
| 20260506184043 | 61 | 250 | 1.0 | 3.0 | 0.00 | 0.00 | 0.00 | 76 | 1020.7 |
| 20260506183546 | 61 | 248 | 0.0 | 2.0 | 0.00 | 0.00 | 0.00 | 78 | 1020.7 |
| 20260506183043 | 60 | 248 | 0.0 | 3.0 | 0.00 | 0.00 | 0.00 | 77 | 1020.6 |
| 20260506182544 | 60 | 248 | 1.0 | 4.0 | 0.00 | 0.00 | 0.00 | 78 | 1020.7 |
| 20260506182043 | 60 | 248 | 1.0 | 4.0 | 0.00 | 0.00 | 0.00 | 77 | 1020.7 |
| 20260506181558 | 60 | 220 | 0.0 | 3.0 | 0.00 | 0.00 | 0.00 | 78 | 1020.7 |
| 20260506181043 | 60 | 219 | 0.0 | 3.0 | 0.00 | 0.00 | 0.00 | 78 | 1020.8 |
| 20260506180542 | 60 | 242 | 0.0 | 5.0 | 0.00 | 0.00 | 0.00 | 77 | 1020.7 |
| 20260506180043 | 60 | 225 | 0.0 | 3.0 | 0.00 | 0.00 | 0.00 | 78 | 1020.7 |
| 20260506175541 | 60 | 216 | 0.0 | 2.0 | 0.00 | 0.00 | 0.00 | 77 | 1020.7 |
| 20260506175042 | 60 | 216 | 0.0 | 3.0 | 0.00 | 0.00 | 0.00 | 77 | 1020.6 |
| 20260506174541 | 60 | 216 | 0.0 | 3.0 | 0.00 | 0.00 | 0.00 | 77 | 1020.6 |
| 20260506174041 | 60 | 216 | 1.0 | 3.0 | 0.00 | 0.00 | 0.00 | 77 | 1020.4 |
| 20260506173542 | 61 | 217 | 0.0 | 3.0 | 0.00 | 0.00 | 0.00 | 76 | 1020.4 |
| 20260506173056 | 61 | 299 | 0.0 | 1.0 | 0.00 | 0.00 | 0.00 | 77 | 1020.5 |
| 20260506172540 | 60 | 299 | 0.0 | 2.0 | 0.00 | 0.00 | 0.00 | 76 | 1020.5 |
| 20260506172041 | 60 | 299 | 0.0 | 4.0 | 0.00 | 0.00 | 0.00 | 76 | 1020.4 |
| 20260506171547 | 60 | 299 | 2.0 | 5.0 | 0.00 | 0.00 | 0.00 | 77 | 1020.5 |
| 20260506171040 | 60 | 294 | 3.0 | 5.0 | 0.00 | 0.00 | 0.00 | 77 | 1020.4 |
| 20260506170540 | 60 | 300 | 1.0 | 6.0 | 0.00 | 0.00 | 0.00 | 76 | 1020.5 |
| 20260506170039 | 60 | 302 | 2.0 | 6.0 | 0.00 | 0.00 | 0.00 | 76 | 1020.4 |
| 20260506165541 | 60 | 302 | 2.0 | 8.0 | 0.00 | 0.00 | 0.00 | 77 | 1020.5 |
| 20260506165039 | 60 | 313 | 3.0 | 8.0 | 0.00 | 0.00 | 0.00 | 77 | 1020.3 |
| 20260506164539 | 60 | 303 | 3.0 | 6.0 | 0.00 | 0.00 | 0.00 | 77 | 1020.4 |
| 20260506164037 | 60 | 304 | 0.0 | 6.0 | 0.00 | 0.00 | 0.00 | 76 | 1020.3 |
| 20260506163542 | 60 | 309 | 0.0 | 5.0 | 0.00 | 0.00 | 0.00 | 76 | 1020.3 |
| 20260506163038 | 60 | 9 | 0.0 | 0.0 | 0.00 | 0.00 | 0.00 | 76 | 1020.3 |
| 20260506162542 | 61 | 45 | 0.0 | 0.0 | 0.00 | 0.00 | 0.00 | 77 | 1020.3 |
| 20260506162038 | 60 | 45 | 0.0 | 0.0 | 0.00 | 0.00 | 0.00 | 76 | 1020.1 |
| 20260506161537 | 60 | 45 | 0.0 | 0.0 | 0.00 | 0.00 | 0.00 | 76 | 1020.1 |
| 20260506161035 | 60 | 309 | 0.0 | 0.0 | 0.00 | 0.00 | 0.00 | 78 | 1020.0 |
| 20260506160534 | 59 | 337 | 0.0 | 0.0 | 0.00 | 0.00 | 0.00 | 80 | 1019.9 |
| 20260506160040 | 58 | 5 | 0.0 | 0.0 | 0.00 | 0.00 | 0.00 | 80 | 1019.8 |
| 20260506155533 | 57 | 348 | 0.0 | 0.0 | 0.00 | 0.00 | 0.00 | 81 | 1019.8 |
| 20260506155036 | 57 | 355 | 0.0 | 0.0 | 0.00 | 0.00 | 0.00 | 83 | 1019.7 |
| 20260506154535 | 56 | 355 | 0.0 | 0.0 | 0.00 | 0.00 | 0.00 | 82 | 1019.8 |
| 20260506154034 | 56 | 350 | 0.0 | 6.0 | 0.00 | 0.00 | 0.00 | 82 | 1020.1 |
| 20260506153534 | 56 | 300 | 0.0 | 6.0 | 0.00 | 0.00 | 0.00 | 83 | 1020.5 |
| 20260506153033 | 56 | 318 | 1.0 | 10.0 | 0.00 | 0.00 | 0.00 | 82 | 1020.5 |
| 20260506152533 | 56 | 327 | 2.0 | 10.0 | 0.00 | 0.00 | 0.00 | 83 | 1020.5 |
| 20260506152033 | 56 | 292 | 2.0 | 5.0 | 0.00 | 0.00 | 0.00 | 83 | 1020.5 |
| 20260506151532 | 56 | 269 | 0.0 | 0.0 | 0.00 | 0.00 | 0.00 | 83 | 1020.6 |
| 20260506151031 | 56 | 243 | 0.0 | 0.0 | 0.00 | 0.00 | 0.00 | 83 | 1020.5 |
| 20260506150530 | 56 | 278 | 0.0 | 0.0 | 0.00 | 0.00 | 0.00 | 83 | 1020.5 |
| 20260506150030 | 56 | 288 | 0.0 | 0.0 | 0.00 | 0.00 | 0.00 | 83 | 1020.3 |
| 20260506145529 | 56 | 273 | 0.0 | 0.0 | 0.00 | 0.00 | 0.00 | 83 | 1020.1 |
| 20260506145029 | 56 | 285 | 0.0 | 0.0 | 0.00 | 0.00 | 0.00 | 83 | 1020.2 |
| 20260506144529 | 57 | 250 | 0.0 | 0.0 | 0.00 | 0.00 | 0.00 | 83 | 1020.1 |
| 20260506144029 | 57 | 296 | 0.0 | 0.0 | 0.00 | 0.00 | 0.00 | 83 | 1020.0 |
| 20260506143528 | 57 | 273 | 0.0 | 0.0 | 0.00 | 0.00 | 0.00 | 83 | 1019.9 |
| 20260506143026 | 57 | 217 | 0.0 | 0.0 | 0.00 | 0.00 | 0.00 | 83 | 1019.7 |
| 20260506142527 | 57 | 217 | 0.0 | 0.0 | 0.00 | 0.00 | 0.00 | 83 | 1019.7 |
| 20260506142027 | 57 | 217 | 0.0 | 0.0 | 0.00 | 0.00 | 0.00 | 83 | 1019.7 |
| 20260506141527 | 57 | 215 | 0.0 | 0.0 | 0.00 | 0.00 | 0.00 | 83 | 1019.7 |
| 20260506141029 | 57 | 215 | 0.0 | 0.0 | 0.00 | 0.00 | 0.00 | 83 | 1019.7 |
| 20260506140525 | 57 | 215 | 0.0 | 0.0 | 0.00 | 0.00 | 0.00 | 83 | 1019.8 |
| 20260506140025 | 56 | 215 | 0.0 | 0.0 | 0.00 | 0.00 | 0.00 | 83 | 1019.6 |
| 20260506135523 | 56 | 215 | 0.0 | 0.0 | 0.00 | 0.00 | 0.00 | 83 | 1019.6 |
| 20260506135023 | 56 | 214 | 0.0 | 0.0 | 0.00 | 0.00 | 0.00 | 84 | 1019.5 |
| 20260506134525 | 56 | 214 | 0.0 | 0.0 | 0.00 | 0.00 | 0.00 | 84 | 1019.5 |
| 20260506134023 | 56 | 214 | 0.0 | 0.0 | 0.00 | 0.00 | 0.00 | 83 | 1019.4 |
| 20260506133527 | 56 | 214 | 0.0 | 0.0 | 0.00 | 0.00 | 0.00 | 83 | 1019.4 |
| 20260506133023 | 56 | 214 | 0.0 | 0.0 | 0.00 | 0.00 | 0.00 | 84 | 1019.4 |
| 20260506132522 | 56 | 214 | 0.0 | 0.0 | 0.00 | 0.00 | 0.00 | 84 | 1019.4 |
| 20260506132022 | 56 | 214 | 0.0 | 0.0 | 0.00 | 0.00 | 0.00 | 84 | 1019.3 |
| 20260506131540 | 56 | 214 | 0.0 | 0.0 | 0.00 | 0.00 | 0.00 | 83 | 1019.3 |
| 20260506131021 | 56 | 214 | 0.0 | 0.0 | 0.00 | 0.00 | 0.00 | 83 | 1019.2 |
| 20260506130520 | 56 | 214 | 0.0 | 0.0 | 0.00 | 0.00 | 0.00 | 83 | 1019.3 |
| 20260506130035 | 56 | 214 | 0.0 | 0.0 | 0.00 | 0.00 | 0.00 | 83 | 1019.3 |
| 20260506125519 | 56 | 214 | 0.0 | 0.0 | 0.00 | 0.00 | 0.00 | 83 | 1019.2 |
| 20260506125019 | 56 | 214 | 0.0 | 0.0 | 0.00 | 0.00 | 0.00 | 83 | 1019.1 |
| 20260506124519 | 56 | 214 | 0.0 | 0.0 | 0.00 | 0.00 | 0.00 | 83 | 1019.1 |
| 20260506124019 | 56 | 214 | 0.0 | 0.0 | 0.00 | 0.00 | 0.00 | 83 | 1019.2 |
| 20260506123519 | 56 | 214 | 0.0 | 0.0 | 0.00 | 0.00 | 0.00 | 83 | 1019.1 |
| 20260506123019 | 56 | 214 | 0.0 | 0.0 | 0.00 | 0.00 | 0.00 | 83 | 1019.1 |
| 20260506122519 | 56 | 214 | 0.0 | 0.0 | 0.00 | 0.00 | 0.00 | 83 | 1019.1 |
| 20260506122018 | 56 | 214 | 0.0 | 0.0 | 0.00 | 0.00 | 0.00 | 83 | 1019.2 |
| 20260506121518 | 56 | 214 | 0.0 | 0.0 | 0.00 | 0.00 | 0.00 | 83 | 1019.1 |
| 20260506121020 | 56 | 214 | 0.0 | 0.0 | 0.00 | 0.00 | 0.00 | 83 | 1019.0 |
| 20260506120521 | 56 | 214 | 0.0 | 0.0 | 0.00 | 0.00 | 0.00 | 83 | 1019.0 |
| 20260506120019 | 56 | 214 | 0.0 | 0.0 | 0.00 | 0.00 | 0.00 | 83 | 1019.2 |
| 20260506115516 | 56 | 214 | 0.0 | 0.0 | 0.00 | 0.00 | 0.00 | 83 | 1019.0 |
| 20260506115015 | 56 | 214 | 0.0 | 0.0 | 0.00 | 0.00 | 0.00 | 83 | 1018.8 |
| 20260506114521 | 56 | 214 | 0.0 | 0.0 | 0.00 | 0.00 | 0.00 | 83 | 1018.9 |
| 20260506114017 | 57 | 214 | 0.0 | 0.0 | 0.00 | 0.00 | 0.00 | 83 | 1018.8 |
| 20260506113516 | 57 | 213 | 0.0 | 0.0 | 0.00 | 0.00 | 0.00 | 82 | 1018.8 |
| 20260506113015 | 57 | 214 | 0.0 | 0.0 | 0.00 | 0.00 | 0.00 | 83 | 1018.8 |
| 20260506112513 | 57 | 213 | 0.0 | 0.0 | 0.00 | 0.00 | 0.00 | 83 | 1018.6 |
| 20260506112013 | 57 | 213 | 0.0 | 0.0 | 0.00 | 0.00 | 0.00 | 82 | 1018.6 |
| 20260506111512 | 57 | 213 | 0.0 | 0.0 | 0.00 | 0.00 | 0.00 | 82 | 1018.5 |
| 20260506111011 | 57 | 215 | 0.0 | 0.0 | 0.00 | 0.00 | 0.00 | 83 | 1018.4 |
| 20260506110510 | 57 | 215 | 0.0 | 0.0 | 0.00 | 0.00 | 0.00 | 82 | 1018.4 |
| 20260506110011 | 57 | 215 | 0.0 | 0.0 | 0.00 | 0.00 | 0.00 | 82 | 1018.3 |
| 20260506105509 | 57 | 215 | 0.0 | 0.0 | 0.00 | 0.00 | 0.00 | 82 | 1018.2 |
| 20260506105008 | 57 | 215 | 0.0 | 0.0 | 0.00 | 0.00 | 0.00 | 82 | 1018.1 |
| 20260506104508 | 57 | 215 | 0.0 | 0.0 | 0.00 | 0.00 | 0.00 | 82 | 1018.2 |
| 20260506104007 | 57 | 214 | 0.0 | 0.0 | 0.00 | 0.00 | 0.00 | 82 | 1018.1 |
| 20260506103506 | 57 | 214 | 0.0 | 0.0 | 0.00 | 0.00 | 0.00 | 81 | 1018.1 |
| 20260506103006 | 57 | 214 | 0.0 | 0.0 | 0.00 | 0.00 | 0.00 | 81 | 1017.7 |
| 20260506102505 | 57 | 214 | 0.0 | 0.0 | 0.00 | 0.00 | 0.00 | 81 | 1017.7 |
| 20260506102004 | 57 | 214 | 0.0 | 0.0 | 0.00 | 0.00 | 0.00 | 81 | 1017.7 |
| 20260506101505 | 57 | 214 | 0.0 | 0.0 | 0.00 | 0.00 | 0.00 | 81 | 1017.7 |
| 20260506101004 | 57 | 214 | 0.0 | 0.0 | 0.00 | 0.00 | 0.00 | 81 | 1017.6 |
| 20260506100506 | 57 | 214 | 0.0 | 0.0 | 0.00 | 0.00 | 0.00 | 81 | 1017.6 |
| 20260506100002 | 58 | 214 | 0.0 | 0.0 | 0.00 | 0.00 | 0.00 | 81 | 1017.6 |
| 20260506095502 | 58 | 214 | 0.0 | 0.0 | 0.00 | 0.00 | 0.00 | 81 | 1017.5 |
| 20260506095002 | 58 | 214 | 0.0 | 0.0 | 0.00 | 0.00 | 0.00 | 81 | 1017.5 |
| 20260506094501 | 58 | 214 | 0.0 | 0.0 | 0.00 | 0.00 | 0.00 | 81 | 1017.5 |
| 20260506094002 | 58 | 214 | 0.0 | 0.0 | 0.00 | 0.00 | 0.00 | 81 | 1017.5 |
| 20260506093501 | 58 | 214 | 0.0 | 0.0 | 0.00 | 0.00 | 0.00 | 81 | 1017.4 |
| 20260506093000 | 58 | 214 | 0.0 | 0.0 | 0.00 | 0.00 | 0.00 | 81 | 1017.5 |
| 20260506092600 | 58 | 214 | 0.0 | 0.0 | 0.00 | 0.00 | 0.00 | 81 | 1017.4 |
| 20260506092100 | 58 | 214 | 0.0 | 0.0 | 0.00 | 0.00 | 0.00 | 81 | 1017.5 |
| 20260506091600 | 58 | 214 | 0.0 | 0.0 | 0.00 | 0.00 | 0.00 | 81 | 1017.4 |
| 20260506091100 | 58 | 214 | 0.0 | 0.0 | 0.00 | 0.00 | 0.00 | 81 | 1017.5 |
| 20260506090557 | 58 | 214 | 0.0 | 0.0 | 0.00 | 0.00 | 0.00 | 81 | 1017.4 |
| 20260506090057 | 58 | 214 | 0.0 | 0.0 | 0.00 | 0.00 | 0.00 | 81 | 1017.3 |
| 20260506085557 | 58 | 214 | 0.0 | 0.0 | 0.00 | 0.00 | 0.00 | 81 | 1017.4 |